ALCOMSAT 1 (43039 NORAD) Tracking and Keplerian Element Data

This shows tracking and keplerian element data for the satellite.

Feedback or suggestion? Click here.




ElementValue
Catalog43039
NameALCOMSAT 1
Epoch Orbit348
Epoch Day316.92434188
Epoch Year2018
RAAN320.8048
Inclination0.0085
Eccentricity0.0002732
Argument of Perigee237.2327
Mean Anonmoly161.98
Mean Motion1.00270666
Decay Rate-1.87E-06
L11 43039U 17078A 18316.92434188 -.00000187 00000-0 00000+0 0 9996
L22 43039 0.0085 320.8048 0002732 237.2327 161.9800 1.00270666 3487

Live tracking and technical data element details for ALCOMSAT 1 (NORAD 43039). ALCOMSAT 1 can be tracked NOW for your location showing map with azimuth and elevation plus other details from your city location.

Track the satellite on the map from your city or location and see movement details for azimuth, elevation, latitude, longitude, range, height, and movement on the map or in text.







IsCatalogInMostPopularTable: catalog: 43039, numindb: 139
Update: records affected: 1



GetName: 43039 ALCOMSAT 1

Hit Count: updated at: Wed, 14 Nov 2018 15:22:12 GMT